OH2FDL-2 Weather Reports


time (UTC)temp
F
wind
direction
speed
knots
gust
knots
rain 1hr
in
rain 24hr
in
rain mn
in
humidity
%
barometer
mb
20260906063018 50 0.0 0.0 0.00 0.00 0.00 10 1001.8
20260906061517 50 0.0 0.0 0.00 0.00 0.00 10 1001.8
20260906054518 49 0.0 0.0 0.00 0.00 0.00 10 1001.4
20260906051518 48 0.0 0.0 0.00 0.00 0.00 10 1001.2
20260906050018 48 0.0 0.0 0.00 0.00 0.00 10 1001.1
20260906044518 48 0.0 0.0 0.00 0.00 0.00 10 1001.0
20260906043018 48 0.0 0.0 0.00 0.00 0.00 10 1001.0
20260906041523 48 0.0 0.0 0.00 0.00 0.00 10 1000.7
20260906040019 48 0.0 0.0 0.00 0.00 0.00 10 1000.4
20260906034518 48 0.0 0.0 0.00 0.00 0.00 10 1000.2
20260906033017 48 0.0 0.0 0.00 0.00 0.00 10 1000.0
20260906031518 48 0.0 0.0 0.00 0.00 0.00 10 999.8
20260906030018 48 0.0 0.0 0.00 0.00 0.00 10 999.6
20260906024518 47 0.0 0.0 0.00 0.00 0.00 10 999.4
20260906023023 47 0.0 0.0 0.00 0.00 0.00 10 999.2
20260906021518 47 0.0 0.0 0.00 0.00 0.00 10 999.1
20260906020018 47 0.0 0.0 0.00 0.00 0.00 10 998.9
20260906014518 47 0.0 0.0 0.00 0.00 0.00 10 998.7
20260906013019 47 0.0 0.0 0.00 0.00 0.00 10 998.6
20260906004523 47 0.0 0.0 0.00 0.00 0.00 10 998.3
20260906003017 47 0.0 0.0 0.00 0.00 0.00 10 998.1
20260906001517 47 0.0 0.0 0.00 0.00 0.00 10 997.9
20260906000018 47 0.0 0.0 0.00 0.00 0.00 10 997.8
20260905234518 47 0.0 0.0 0.00 0.00 0.00 10 997.6
20260905233018 47 0.0 0.0 0.00 0.00 0.00 10 997.5
20260905231518 48 0.0 0.0 0.00 0.00 0.00 10 997.3
20260905230018 48 0.0 0.0 0.00 0.00 0.00 10 997.2
20260905224517 48 0.0 0.0 0.00 0.00 0.00 10 997.1
20260905223018 49 0.0 0.0 0.00 0.00 0.00 10 997.0
20260905221518 49 0.0 0.0 0.00 0.00 0.00 10 996.8
20260905220018 49 0.0 0.0 0.00 0.00 0.00 10 996.7
20260905214518 49 0.0 0.0 0.00 0.00 0.00 10 996.6
20260905213022 50 0.0 0.0 0.00 0.00 0.00 10 996.6
20260905211517 50 0.0 0.0 0.00 0.00 0.00 10 996.3
20260905210018 50 0.0 0.0 0.00 0.00 0.00 10 996.3
20260905204517 51 0.0 0.0 0.00 0.00 0.00 10 996.1
20260905203018 51 0.0 0.0 0.00 0.00 0.00 10 995.9
20260905201517 51 0.0 0.0 0.00 0.00 0.00 10 995.7
20260905200018 52 0.0 0.0 0.00 0.00 0.00 10 995.6
20260905194522 52 0.0 0.0 0.00 0.00 0.00 10 995.5
20260905193017 53 0.0 0.0 0.00 0.00 0.00 10 995.4
20260905191518 53 0.0 0.0 0.00 0.00 0.00 10 995.3
20260905190018 53 0.0 0.0 0.00 0.00 0.00 10 995.2
20260905184523 54 0.0 0.0 0.00 0.00 0.00 10 995.1
20260905183028 55 0.0 0.0 0.00 0.00 0.00 10 994.9
20260905181524 56 0.0 0.0 0.00 0.00 0.00 10 994.9
20260905180023 55 0.0 0.0 0.00 0.00 0.00 10 994.8
20260905174517 55 0.0 0.0 0.00 0.00 0.00 10 994.7
20260905173018 56 0.0 0.0 0.00 0.00 0.00 10 994.6
20260905171518 56 0.0 0.0 0.00 0.00 0.00 10 994.4
20260905170033 57 0.0 0.0 0.00 0.00 0.00 10 994.2
20260905164527 57 0.0 0.0 0.00 0.00 0.00 10 994.1
20260905163023 58 0.0 0.0 0.00 0.00 0.00 10 993.9
20260905161518 58 0.0 0.0 0.00 0.00 0.00 10 993.8
20260905160018 58 0.0 0.0 0.00 0.00 0.00 10 993.7
20260905154518 60 0.0 0.0 0.00 0.00 0.00 10 993.5
20260905153018 60 0.0 0.0 0.00 0.00 0.00 10 993.4
20260905151528 61 0.0 0.0 0.00 0.00 0.00 10 993.4
20260905150028 62 0.0 0.0 0.00 0.00 0.00 10 993.3
20260905144522 62 0.0 0.0 0.00 0.00 0.00 10 993.2
20260905141518 65 0.0 0.0 0.00 0.00 0.00 10 993.0
20260905140018 65 0.0 0.0 0.00 0.00 0.00 10 992.9
20260905134518 65 0.0 0.0 0.00 0.00 0.00 10 992.7
20260905133028 67 0.0 0.0 0.00 0.00 0.00 10 992.6
20260905131523 66 0.0 0.0 0.00 0.00 0.00 10 992.6
20260905130022 64 0.0 0.0 0.00 0.00 0.00 10 992.4
20260905124518 63 0.0 0.0 0.00 0.00 0.00 10 992.4
20260905123017 62 0.0 0.0 0.00 0.00 0.00 10 992.4
20260905121518 64 0.0 0.0 0.00 0.00 0.00 10 992.4
20260905120033 61 0.0 0.0 0.00 0.00 0.00 10 992.1
20260905114528 61 0.0 0.0 0.00 0.00 0.00 10 992.1
20260905113023 60 0.0 0.0 0.00 0.00 0.00 10 992.1
20260905110018 60 0.0 0.0 0.00 0.00 0.00 10 991.9
20260905104518 60 0.0 0.0 0.00 0.00 0.00 10 991.9
20260905103017 61 0.0 0.0 0.00 0.00 0.00 10 991.8
20260905101527 62 0.0 0.0 0.00 0.00 0.00 10 991.5
20260905100028 61 0.0 0.0 0.00 0.00 0.00 10 991.3
20260905091517 56 0.0 0.0 0.00 0.00 0.00 10 991.4
20260905090018 54 0.0 0.0 0.00 0.00 0.00 10 991.3
20260905084517 53 0.0 0.0 0.00 0.00 0.00 10 991.2
20260905083018 52 0.0 0.0 0.00 0.00 0.00 10 991.2
20260905081518 52 0.0 0.0 0.00 0.00 0.00 10 991.2
20260905080017 52 0.0 0.0 0.00 0.00 0.00 10 991.1
20260905073017 51 0.0 0.0 0.00 0.00 0.00 10 991.0
20260905070033 50 0.0 0.0 0.00 0.00 0.00 10 990.8
20260905064533 49 0.0 0.0 0.00 0.00 0.00 10 990.7